WetterOnline ( https://www.wetteronline.de )

Wetter aktuell Nova Ves

Aktuelles Wetter: Liberec (401m)

6-stündlich | Neueste Meldungen
Ortszeit Temperatur Wetter
Fr, 07.08. 14:00 29.5° C leicht bewölkt
Fr, 07.08. 8:00 21.0° C fast wolkenlos
Fr, 07.08. 2:00 15.4° C fast wolkenlos
Do, 06.08. 20:00 23.0° C wolkig
Do, 06.08. 14:00 25.6° C leicht bewölkt
Do, 06.08. 8:00 17.0° C wolkenlos
Do, 06.08. 2:00 12.1° C -
Mi, 05.08. 20:00 20.7° C leicht bewölkt
Ortszeit Temperatur Wetter
Fr, 07.08. 19:00 28.8° C -
Fr, 07.08. 18:00 29.1° C wolkig
Fr, 07.08. 17:00 28.9° C leicht bewölkt
Fr, 07.08. 16:00 30.6° C leicht bewölkt
Fr, 07.08. 15:00 30.3° C leicht bewölkt
Fr, 07.08. 14:00 29.5° C leicht bewölkt
Ortszeit Relative Feuchte Sichtweite
Fr, 07.08. 14:00 40% 27 km
Fr, 07.08. 8:00 71% 22 km
Fr, 07.08. 2:00 96% 17 km
Do, 06.08. 20:00 61% 27 km
Do, 06.08. 14:00 47% 40 km
Do, 06.08. 8:00 68% 35 km
Do, 06.08. 2:00 94% 35 km
Mi, 05.08. 20:00 57% 45 km
Ortszeit Relative Feuchte Sichtweite
Fr, 07.08. 19:00 48% 35 km
Fr, 07.08. 18:00 45% 35 km
Fr, 07.08. 17:00 45% 35 km
Fr, 07.08. 16:00 37% 35 km
Fr, 07.08. 15:00 37% 35 km
Fr, 07.08. 14:00 40% 27 km
Ortszeit Niederschlagsmenge Niederschlagsart
Fr, 07.08. 14:00 0.0 l/m2 in 6 Std. -
Fr, 07.08. 8:00 0.0 l/m2 in 12 Std. -
Fr, 07.08. 2:00 0.0 l/m2 in 6 Std. -
Do, 06.08. 20:00 0.0 l/m2 in 12 Std. -
Do, 06.08. 14:00 0.0 l/m2 in 6 Std. -
Do, 06.08. 8:00 0.0 l/m2 in 12 Std. -
Do, 06.08. 2:00 0.0 l/m2 in 6 Std. -
Mi, 05.08. 20:00 0.0 l/m2 in 12 Std. -
Ortszeit Niederschlagsmenge Niederschlagsart
Fr, 07.08. 19:00 0.0 l/m2 in 1 Std. -
Fr, 07.08. 18:00 0.0 l/m2 in 1 Std. -
Fr, 07.08. 17:00 0.0 l/m2 in 1 Std. -
Fr, 07.08. 16:00 0.0 l/m2 in 1 Std. -
Fr, 07.08. 15:00 0.0 l/m2 in 1 Std. -
Fr, 07.08. 14:00 0.0 l/m2 in 1 Std. -
Ortszeit Stärke Spitze Richtung
km/h Bft. km/h Grad Sektor
Fr, 07.08. 14:00 7 2 - 130° SO
Fr, 07.08. 8:00 4 1 - 140° SO
Fr, 07.08. 2:00 4 1 - 120° SO
Do, 06.08. 20:00 4 1 - 120° SO
Do, 06.08. 14:00 11 2 - 290° W
Do, 06.08. 8:00 0 0 - - -
Do, 06.08. 2:00 4 1 - 110° O
Mi, 05.08. 20:00 7 2 - 280° W
Ortszeit Stärke Spitze Richtung
km/h Bft. km/h Grad Sektor
Fr, 07.08. 19:00 4 1 - 230° SW
Fr, 07.08. 18:00 4 1 - 300° NW
Fr, 07.08. 17:00 4 1 - 10° N
Fr, 07.08. 16:00 4 1 - 310° NW
Fr, 07.08. 15:00 11 2 - 210° SW
Fr, 07.08. 14:00 7 2 - 130° SO
Ortszeit Untergrenze Bedeckung Gattung
total tief tief mittel hoch
Fr, 07.08. 14:00 1500 m 3/8 3/8 Cu - -
Fr, 07.08. 8:00 6900 m 1/8 1/8 - - Ci
Fr, 07.08. 2:00 1110 m - 1/8 - - -
Do, 06.08. 20:00 1230 m 5/8 4/8 Cu As Ci
Do, 06.08. 14:00 1500 m 2/8 2/8 Cu - -
Do, 06.08. 8:00 - 0/8 0/8 - - -
Do, 06.08. 2:00 - - - - - -
Mi, 05.08. 20:00 1500 m 3/8 2/8 Sc - Ci
Ortszeit Bedeckungsgrad in Achtel und Wolkenuntergrenze
Fr, 07.08. 19:00 -
Fr, 07.08. 18:00 6(2100m)
Fr, 07.08. 17:00 4(1800m)
Fr, 07.08. 16:00 3(1800m)
Fr, 07.08. 15:00 3(1800m)
Fr, 07.08. 14:00 3(1500m)
Ortszeit Luftdruck NN (hPa) Tendenz (hPa in 3 Std.)
Fr, 07.08. 14:00 1020 - 0,5
Fr, 07.08. 8:00 1022 + 0,6
Fr, 07.08. 2:00 1023 - 0,1
Do, 06.08. 20:00 1021 + 0,6
Do, 06.08. 14:00 1020 - 0,4
Do, 06.08. 8:00 1022 + 0,7
Do, 06.08. 2:00 1022 + 0,1
Mi, 05.08. 20:00 1019 + 0,2
Ortszeit Luftdruck NN (hPa) Tendenz (hPa in 3 Std.)
Fr, 07.08. 19:00 1019 - 0,5
Fr, 07.08. 18:00 1020 - 0,5
Fr, 07.08. 17:00 1020 - 0,6
Fr, 07.08. 16:00 1020 - 0,7
Fr, 07.08. 15:00 1020 - 0,7
Fr, 07.08. 14:00 1020 - 0,5
Ortszeit Schneehöhe (cm)
Fr, 07.08. 14:00 -
Fr, 07.08. 8:00 0
Fr, 07.08. 2:00 -
Do, 06.08. 20:00 -
Do, 06.08. 14:00 -
Do, 06.08. 8:00 0
Do, 06.08. 2:00 -
Mi, 05.08. 20:00 -
Ortszeit Schneehöhe (cm)
Fr, 07.08. 19:00 -
Fr, 07.08. 18:00 -
Fr, 07.08. 17:00 -
Fr, 07.08. 16:00 -
Fr, 07.08. 15:00 -
Fr, 07.08. 14:00 -
Link zu dieser Seite / Seite empfehlen

Das Wetter in ...